Miscellaneous Local Product
Issued by NWS North Platte, NE

Home | Current Version | Previous Version | Text Only | Print | Product List | Glossary On
Versions: 1 2 3 4 5 6 7 8 9 10 11 12 13 14 15 16 17 18 19 20 21 22 23 24 25 26 27 28 29 30 31 32 33 34 35 36 37 38 39 40 41 42 43 44 45 46 47 48 49 50
269
AXUS43 KLBF 091010
MISLBF


WESTERN AND NORTH CENTRAL NEBRASKA HOURLY WEATHER ROUNDUP
NATIONAL WEATHER SERVICE NORTH PLATTE NE
400 AM CST TUE FEB 09 2016

NOTE: "FAIR" INDICATES FEW OR NO CLOUDS BELOW 12,000 FEET WITH NO
SIGNIFICANT WEATHER AND/OR OBSTRUCTIONS TO VISIBILITY.

NOTE: STATIONS NOT REPORTING VARIABLES SUCH AS SKY/WEATHER OR
PRESSURE ARE PROVIDED BY THE NEBRASKA DEPARTMENT OF
ROADS...RAWS...AND APRS NETWORKS...AND ARE NOT UNDER
NATIONAL WEATHER SERVICE QUALITY CONTROL.

...OBSERVATIONS IN AND NEAR THE EASTERN PANHANDLE OF NEBRASKA...

CITY           SKY/WX    TMP DP  RH WIND       PRES   REMARKS
PINE RIDGE     PTCLDY    24  19  81 SW6       30.21S WCI  17
CHADRON        CLEAR     32  25  75 NW10      30.23S WCI  24
ALLIANCE       CLEAR     33  25  72 NW15      30.18F WCI  23
SIDNEY         CLEAR     32  24  72 NW16      30.21F WCI  21
CRESCENT LAKE    N/A     30  22  73 N9          N/A  WCI  22
BIG SPRINGS      N/A     30  26  86 W5          N/A  WCI  25
$$

...OBSERVATIONS IN NORTH CENTRAL NEBRASKA...

CITY           SKY/WX    TMP DP  RH WIND       PRES   REMARKS
VALENTINE      CLOUDY    28  18  66 N7        30.22R WCI  21
THEDFORD       CLOUDY    30  18  59 N12       30.19S WCI  21
AINSWORTH      CLOUDY    27  17  64 N20G25    30.21R WCI  14
O`NEILL        PTCLDY    22  13  68 N18       30.19R WCI   7
ORD            PTCLDY    25  18  74 N15       30.16R WCI  13
BROKEN BOW     CLOUDY    29  17  61 N18       30.15S WCI  16
VALENTINE NWR    N/A     28  15  57 N15         N/A  WCI  16
BUTTE            N/A     20  12  71 NE12G21     N/A  WCI   8
HALSEY           N/A     30  15  52 NW9G21      N/A  WCI  22
CHAMBERS         N/A     21  10  62 N8          N/A  WCI  11
EWING            N/A     19  12  73 N12G24      N/A  WCI   7
$$

...OBSERVATIONS IN SOUTHWEST NEBRASKA AND FAR NORTHEAST COLORADO...

CITY           SKY/WX    TMP DP  RH WIND       PRES   REMARKS
WRAY           PTSUNNY   37  27  66 NW20      30.22F WCI  27
HOLYOKE        PTSUNNY   41  28  60 NW18G25   30.20F
IMPERIAL       CLOUDY    30  23  75 NW7       30.20F WCI  23
OGALLALA       CLOUDY    22  19  88 W5        30.20F WCI  15
NORTH PLATTE   MOCLDY    25  18  74 NW8       30.19S WCI  16
MCCOOK         CLOUDY    29  21  72 W12       30.21S WCI  19
LEXINGTON      MOCLDY    29  19  66 NW10      30.18R WCI  19
PAXTON           N/A     24  20  85 W3          N/A
STAPLETON        N/A     27  18  68 CALM        N/A
GOTHENBURG       N/A     30  20  65 NW7         N/A  WCI  23
CALLAWAY         N/A     28  17  64 NW8         N/A  WCI  20
$$

...OBSERVATIONS IN CENTRAL LINCOLN COUNTY AREA...

CITY           SKY/WX    TMP DP  RH WIND       PRES   REMARKS
N.P. AIRPORT   MOCLDY    25  18  74 NW8       30.19S WCI  16
N.P. DOWNTOWN    N/A     29  20  69 NW3         N/A
N.P. SOUTHEAST   N/A     30  20  65 NW3         N/A
N.P. HILLCREST   N/A     26  20  77 NW3         N/A
$$

...SOME OBSERVATIONS FROM AROUND THE REGION...

CITY           SKY/WX    TMP DP  RH WIND       PRES   REMARKS
DENVER         CLOUDY    28  19  69 S7        30.28S WCI  21
LARAMIE        CLOUDY    19  13  77 NE7       30.34F WCI  10
CHEYENNE       CLEAR     38  19  46 NW15G26   30.29S WCI  29
SCOTTSBLUFF    CLEAR     33  25  72 NW14      30.23F WCI  23
RAPID CITY     CLEAR     25  15  66 CALM      30.22S
BISMARCK       CLOUDY    25  10  53 NW3       30.27F
PIERRE         CLOUDY    24  14  65 N10       30.26R WCI  14
WINNER         CLOUDY    24  15  68 N12       30.24R WCI  13
SIOUX FALLS    CLEAR      9   2  73 N23       30.14S WCI -11
OMAHA          CLEAR     17   9  70 N18G24    30.13R WCI   1
GRAND ISLAND   CLEAR     19  12  74 N9        30.18R WCI   8
KANSAS CITY    CLEAR     24   8  50 N21G31    30.02S WCI   9
WICHITA        PTCLDY    30  17  58 NW9       30.16S WCI  22
OKLAHOMA CITY  PTCLDY    33  14  45 NW7       30.23S WCI  27
LIBERAL        CLEAR     34  23  64 NW10      30.24F WCI  26
HAYS           CLOUDY    36  18  48 NW12      30.19F WCI  27
GOODLAND       CLOUDY    22  19  89 NW9       30.21F WCI  12
$$




USA.gov is the U.S. government's official web portal to all federal, state and local government web resources and services.